| time (UTC) | temp F | wind direction | speed MPH | gust MPH | rain 1hr in | rain 24hr in | rain mn in | humidity % | barometer mb |
| 20260831091602 | 60 | 34 | 1.0 | 4.0 | 0.00 | 0.31 | 0.06 | 88 | 1004.0 |
| 20260831090052 | 59 | 60 | 1.0 | 8.0 | 0.00 | 0.31 | 0.06 | 89 | 1004.0 |
| 20260831084551 | 59 | 65 | 2.0 | 7.0 | 0.00 | 0.31 | 0.06 | 89 | 1003.9 |
| 20260831083050 | 59 | 354 | 2.0 | 7.0 | 0.00 | 0.31 | 0.06 | 91 | 1003.8 |
| 20260831081549 | 59 | 124 | 0.0 | 7.0 | 0.00 | 0.31 | 0.06 | 93 | 1003.8 |
| 20260831080048 | 59 | 69 | 2.0 | 9.0 | 0.00 | 0.31 | 0.06 | 94 | 1003.7 |
| 20260831074547 | 59 | 62 | 0.0 | 9.0 | 0.00 | 0.31 | 0.06 | 95 | 1003.7 |
| 20260831073046 | 58 | 335 | 1.0 | 9.0 | 0.00 | 0.31 | 0.06 | 95 | 1003.7 |
| 20260831071544 | 58 | 28 | 1.0 | 9.0 | 0.00 | 0.31 | 0.06 | 96 | 1003.6 |
| 20260831070044 | 57 | 39 | 1.0 | 9.0 | 0.00 | 0.31 | 0.06 | 96 | 1003.5 |
| 20260831064544 | 57 | 304 | 1.0 | 9.0 | 0.00 | 0.31 | 0.06 | 97 | 1003.6 |
| 20260831063041 | 57 | 326 | 0.0 | 9.0 | 0.00 | 0.31 | 0.06 | 97 | 1003.4 |
| 20260831061540 | 57 | 55 | 0.0 | 9.0 | 0.00 | 0.31 | 0.06 | 97 | 1003.2 |
| 20260831060039 | 57 | 348 | 2.0 | 9.0 | 0.00 | 0.31 | 0.06 | 97 | 1003.2 |
| 20260831054539 | 57 | 8 | 1.0 | 8.0 | 0.00 | 0.31 | 0.06 | 98 | 1003.0 |
| 20260831053039 | 57 | 330 | 1.0 | 8.0 | 0.00 | 0.31 | 0.06 | 98 | 1002.9 |
| 20260831051537 | 57 | 337 | 2.0 | 8.0 | 0.00 | 0.31 | 0.06 | 98 | 1002.9 |
| 20260831050034 | 57 | 356 | 0.0 | 8.0 | 0.00 | 0.31 | 0.06 | 98 | 1002.9 |
| 20260831044533 | 57 | 327 | 3.0 | 8.0 | 0.00 | 0.31 | 0.06 | 98 | 1002.8 |
| 20260831043031 | 57 | 342 | 1.0 | 8.0 | 0.00 | 0.31 | 0.06 | 98 | 1002.6 |
| 20260831041602 | 57 | 8 | 1.0 | 8.0 | 0.00 | 0.31 | 0.06 | 98 | 1002.4 |
| 20260831040029 | 57 | 81 | 0.0 | 8.0 | 0.00 | 0.31 | 0.06 | 98 | 1002.3 |
| 20260831034527 | 57 | 61 | 0.0 | 8.0 | 0.00 | 0.31 | 0.06 | 98 | 1002.3 |
| 20260831033029 | 57 | 40 | 1.0 | 8.0 | 0.00 | 0.31 | 0.06 | 98 | 1002.3 |
| 20260831031525 | 57 | 359 | 1.0 | 8.0 | 0.00 | 0.31 | 0.06 | 98 | 1002.2 |
| 20260831030025 | 57 | 84 | 1.0 | 8.0 | 0.00 | 0.31 | 0.06 | 98 | 1002.2 |
| 20260831024536 | 57 | 27 | 0.0 | 8.0 | 0.00 | 0.31 | 0.06 | 98 | 1002.1 |
| 20260831023023 | 57 | 60 | 0.0 | 8.0 | 0.01 | 0.31 | 0.06 | 98 | 1002.1 |
| 20260831021535 | 58 | 300 | 0.0 | 8.0 | 0.01 | 0.31 | 0.06 | 98 | 1002.1 |
| 20260831020021 | 58 | 39 | 1.0 | 8.0 | 0.01 | 0.31 | 0.06 | 98 | 1002.0 |
| 20260831014522 | 58 | 60 | 2.0 | 8.0 | 0.01 | 0.31 | 0.06 | 98 | 1002.0 |
| 20260831013018 | 59 | 23 | 0.0 | 8.0 | 0.00 | 0.31 | 0.05 | 98 | 1001.9 |
| 20260831011533 | 59 | 48 | 0.0 | 6.0 | 0.00 | 0.31 | 0.05 | 98 | 1001.8 |
| 20260831010015 | 58 | 46 | 0.0 | 6.0 | 0.00 | 0.31 | 0.05 | 98 | 1001.7 |
| 20260831004514 | 59 | 66 | 0.0 | 6.0 | 0.00 | 0.31 | 0.05 | 98 | 1001.6 |
| 20260831003013 | 59 | 45 | 0.0 | 6.0 | 0.00 | 0.31 | 0.05 | 98 | 1001.7 |
| 20260831001511 | 59 | 34 | 0.0 | 6.0 | 0.02 | 0.31 | 0.05 | 98 | 1001.6 |
| 20260831000010 | 59 | 131 | 0.0 | 6.0 | 0.05 | 0.31 | 0.05 | 98 | 1001.6 |
| 20260830234511 | 59 | 26 | 0.0 | 6.0 | 0.05 | 0.31 | 0.05 | 98 | 1001.4 |
| 20260830233016 | 60 | 45 | 1.0 | 6.0 | 0.05 | 0.31 | 0.05 | 98 | 1001.3 |
| 20260830231503 | 60 | 75 | 0.0 | 0.0 | 0.03 | 0.28 | 0.03 | 98 | 1001.2 |
| 20260830224554 | 0 | 0.0 | 0.0 | 0.00 | 0.26 | 0.00 | 1000.9 | ||
| 20260830223123 | 0 | 0.0 | 0.0 | 0.00 | 0.26 | 0.00 | 1000.8 | ||
| 20260830221547 | 60 | 305 | 0.0 | 0.0 | 0.00 | 0.26 | 0.00 | 98 | 1000.7 |
| 20260830220043 | 0 | 0.0 | 0.0 | 0.00 | 0.26 | 0.26 | 1000.7 | ||
| 20260830214537 | 0 | 0.0 | 0.0 | 0.02 | 0.26 | 0.26 | 1000.6 | ||
| 20260830213037 | 0 | 0.0 | 0.0 | 0.02 | 0.26 | 0.26 | 1000.5 | ||
| 20260830211528 | 0 | 0.0 | 0.0 | 0.02 | 0.26 | 0.26 | 1000.4 | ||
| 20260830210028 | 61 | 305 | 0.0 | 0.0 | 0.02 | 0.27 | 0.26 | 98 | 1000.3 |
| 20260830204525 | 61 | 305 | 0.0 | 0.0 | 0.00 | 0.25 | 0.24 | 98 | 1000.3 |
| 20260830203024 | 61 | 305 | 0.0 | 0.0 | 0.00 | 0.25 | 0.24 | 98 | 1000.4 |
| 20260830201523 | 61 | 305 | 0.0 | 0.0 | 0.00 | 0.25 | 0.24 | 98 | 1000.3 |
| 20260830200023 | 61 | 305 | 0.0 | 0.0 | 0.00 | 0.25 | 0.24 | 97 | 1000.2 |
| 20260830194523 | 61 | 305 | 0.0 | 0.0 | 0.01 | 0.25 | 0.24 | 97 | 1000.1 |
| 20260830193022 | 61 | 305 | 0.0 | 0.0 | 0.01 | 0.25 | 0.24 | 97 | 1000.0 |
| 20260830191521 | 61 | 305 | 0.0 | 0.0 | 0.01 | 0.25 | 0.24 | 97 | 1000.0 |
| 20260830190022 | 61 | 305 | 0.0 | 0.0 | 0.02 | 0.26 | 0.24 | 97 | 1000.1 |
| 20260830184525 | 61 | 305 | 0.0 | 0.0 | 0.02 | 0.25 | 0.24 | 97 | 1000.2 |
| 20260830183023 | 61 | 305 | 0.0 | 0.0 | 0.02 | 0.25 | 0.24 | 96 | 1000.1 |
| 20260830181518 | 61 | 305 | 0.0 | 0.0 | 0.06 | 0.25 | 0.24 | 96 | 1000.1 |
| 20260830180018 | 61 | 305 | 0.0 | 0.0 | 0.09 | 0.26 | 0.22 | 96 | 1000.0 |
| 20260830174521 | 62 | 305 | 0.0 | 0.0 | 0.16 | 0.25 | 0.21 | 95 | 1000.1 |
| 20260830173017 | 62 | 305 | 0.0 | 0.0 | 0.20 | 0.25 | 0.21 | 95 | 1000.1 |
| 20260830171515 | 62 | 305 | 0.0 | 0.0 | 0.17 | 0.21 | 0.17 | 94 | 1000.2 |
| 20260830170016 | 63 | 305 | 0.0 | 0.0 | 0.12 | 0.17 | 0.13 | 93 | 1000.2 |
| 20260830164514 | 63 | 304 | 0.0 | 0.0 | 0.05 | 0.09 | 0.06 | 92 | 1000.2 |
| 20260830163016 | 64 | 311 | 0.0 | 0.0 | 0.00 | 0.05 | 0.01 | 90 | 1000.2 |
| 20260830161512 | 64 | 311 | 0.0 | 0.0 | 0.00 | 0.05 | 0.01 | 88 | 1000.2 |
| 20260830160010 | 65 | 311 | 0.0 | 2.0 | 0.00 | 0.05 | 0.01 | 87 | 1000.3 |
| 20260830154509 | 65 | 311 | 1.0 | 4.0 | 0.00 | 0.05 | 0.01 | 86 | 1000.3 |
| 20260830153008 | 65 | 29 | 0.0 | 3.0 | 0.00 | 0.05 | 0.01 | 86 | 1000.4 |
| 20260830151506 | 65 | 338 | 1.0 | 4.0 | 0.00 | 0.05 | 0.01 | 86 | 1000.6 |
| 20260830150006 | 65 | 297 | 0.0 | 3.0 | 0.00 | 0.05 | 0.01 | 86 | 1000.7 |
| 20260830144503 | 64 | 343 | 0.0 | 6.0 | 0.00 | 0.05 | 0.01 | 85 | 1000.8 |
| 20260830143002 | 65 | 345 | 1.0 | 7.0 | 0.00 | 0.05 | 0.01 | 84 | 1000.9 |
| 20260830141502 | 65 | 282 | 2.0 | 5.0 | 0.00 | 0.05 | 0.01 | 83 | 1000.9 |
| 20260830140101 | 65 | 325 | 2.0 | 8.0 | 0.00 | 0.05 | 0.01 | 83 | 1000.9 |
| 20260830134600 | 64 | 339 | 0.0 | 4.0 | 0.00 | 0.05 | 0.01 | 84 | 1001.0 |
| 20260830133107 | 64 | 328 | 2.0 | 6.0 | 0.00 | 0.05 | 0.01 | 83 | 1001.2 |
| 20260830131559 | 65 | 338 | 4.0 | 9.0 | 0.00 | 0.05 | 0.01 | 81 | 1001.2 |
| 20260830130110 | 65 | 49 | 1.0 | 5.0 | 0.00 | 0.05 | 0.01 | 82 | 1001.2 |
| 20260830124558 | 65 | 346 | 2.0 | 8.0 | 0.00 | 0.05 | 0.01 | 82 | 1001.2 |
| 20260830123059 | 65 | 351 | 3.0 | 9.0 | 0.00 | 0.05 | 0.01 | 81 | 1001.4 |
| 20260830121556 | 64 | 34 | 1.0 | 5.0 | 0.00 | 0.05 | 0.01 | 86 | 1001.5 |
| 20260830120049 | 63 | 354 | 1.0 | 5.0 | 0.00 | 0.05 | 0.01 | 86 | 1001.6 |
| 20260830114548 | 63 | 301 | 4.0 | 10.0 | 0.00 | 0.05 | 0.01 | 85 | 1001.6 |
| 20260830113046 | 62 | 3 | 0.0 | 9.0 | 0.01 | 0.05 | 0.01 | 89 | 1001.7 |
| 20260830111545 | 62 | 321 | 4.0 | 9.0 | 0.01 | 0.05 | 0.01 | 91 | 1001.8 |
| 20260830110056 | 62 | 339 | 3.0 | 11.0 | 0.01 | 0.05 | 0.01 | 93 | 1001.8 |
| 20260830104546 | 61 | 317 | 2.0 | 12.0 | 0.01 | 0.05 | 0.01 | 93 | 1001.9 |
| 20260830103044 | 62 | 344 | 2.0 | 5.0 | 0.00 | 0.04 | 0.00 | 93 | 1001.9 |
| 20260830101543 | 62 | 20 | 0.0 | 2.0 | 0.00 | 0.04 | 0.00 | 92 | 1001.9 |
| 20260830100051 | 62 | 21 | 0.0 | 6.0 | 0.00 | 0.04 | 0.00 | 91 | 1002.0 |
| 20260830094543 | 63 | 337 | 1.0 | 7.0 | 0.00 | 0.04 | 0.00 | 90 | 1002.1 |
| 20260830093042 | 62 | 335 | 3.0 | 12.0 | 0.00 | 0.04 | 0.00 | 90 | 1002.1 |